Ft. Stewart, GA

5:20 AM EDT on May 30, 2017 (GMT -0400)
Wright Army Air Field

Weather History for KLHW - June, 2013

Change the Weather History Date:

Tuesday, June 11, 2013

  Actual Average Record
Temperature  
Mean Temperature 81 °F -  
Max Temperature 91 °F 89 °F 100 °F (1993)
Min Temperature 71 °F 67 °F 56 °F (1988)
Cooling Degree Days 16    
Growing Degree Days 31 (Base 50)    
Moisture  
Dew Point 72 °F    
Average Humidity 76    
Maximum Humidity 100    
Minimum Humidity 46    
Precipitation  
Precipitation 0.00 in - - ()
Sea Level Pressure  
Sea Level Pressure 30.03 in    
Wind  
Wind Speed 5 mph (SW)    
Max Wind Speed 13 mph    
Max Gust Speed 16 mph    
Visibility 10 miles    
Events      
Averages and records for this station are not official NWS values.
T = Trace of Precipitation, MM = Missing Value Source: NWS Daily Summary

Daily Weather History Graph

Daily Weather History Graph

Search for Another Location

Airport or City:

Trip Planner

Search our weather history database for the weather conditions in past years. The results will help you decide how hot, cold, wet, or windy it might be!

Date:

Astronomy

Jun. 11, 2013 Rise Set
Actual Time 6:19 AM EDT 8:32 PM EDT
Civil Twilight 5:51 AM EDT 9:00 PM EDT
Nautical Twilight 5:17 AM EDT 9:34 PM EDT
Astronomical Twilight 4:40 AM EDT 10:11 PM EDT
Moon 8:54 AM EDT (6/11) 10:43 PM EDT (6/11)
Length of Visible Light 15h 08m
Length of Day
14h 12m
Waxing Crescent, 8% of the Moon is Illuminated
Jun 11
Waxing Crescent
Jun 16
First Quarter
Jun 23
Full
Jun 30
Last Quarter
Jul 8
New

Hourly Weather History & Observations

Time (EDT) Temp. Heat Index Dew Point Humidity Pressure Visibility Wind Dir Wind Speed Gust Speed Precip Events Conditions
12:58 AM 72.5 °F - 72.5 °F 100% 30.05 in 10.0 mi South 1.2 mph - N/A   Scattered Clouds
1:58 AM 72.3 °F - 72.3 °F 100% 30.04 in 10.0 mi SW 3.5 mph - N/A   Overcast
2:58 AM 72.1 °F - 72.1 °F 100% 30.03 in 10.0 mi SSW 3.5 mph - N/A   Clear
3:23 AM 71.6 °F - 71.6 °F 100% 30.02 in 9.0 mi SSE 4.6 mph - N/A   Partly Cloudy
3:28 AM 71.6 °F - 71.6 °F 100% 30.02 in 9.0 mi SSE 3.5 mph - N/A   Scattered Clouds
3:58 AM 71.2 °F - 71.2 °F 100% 30.03 in 10.0 mi SSW 2.3 mph - N/A   Partly Cloudy
4:58 AM 71.4 °F - 71.4 °F 100% 30.04 in 10.0 mi SW 2.3 mph - N/A   Clear
5:58 AM 71.2 °F - 71.2 °F 100% 30.05 in 10.0 mi SSW 3.5 mph - N/A   Clear
6:58 AM 72.0 °F - 72.0 °F 100% 30.06 in 10.0 mi SW 4.6 mph - N/A   Clear
7:58 AM 74.5 °F - 74.1 °F 99% 30.07 in 10.0 mi SW 6.9 mph - N/A   Scattered Clouds
9:58 AM 80.6 °F 85.7 °F 74.3 °F 81% 30.07 in 10.0 mi WSW 8.1 mph - N/A   Partly Cloudy
10:23 AM 82.4 °F 88.2 °F 73.4 °F 74% 30.07 in 10.0 mi West 8.1 mph - N/A   Mostly Cloudy
10:38 AM 82.4 °F 88.2 °F 73.4 °F 74% 30.06 in 10.0 mi West 9.2 mph - N/A   Scattered Clouds
10:43 AM 82.4 °F 88.2 °F 73.4 °F 74% 30.06 in 10.0 mi West 8.1 mph - N/A   Mostly Cloudy
10:58 AM 82.8 °F 89.2 °F 74.3 °F 75% 30.07 in 10.0 mi WNW 8.1 mph - N/A   Mostly Cloudy
11:08 AM 84.2 °F 90.9 °F 73.4 °F 70% 30.06 in 10.0 mi West 12.7 mph - N/A   Scattered Clouds
11:43 AM 84.2 °F 90.9 °F 73.4 °F 70% 30.06 in 10.0 mi SW 11.5 mph - N/A   Mostly Cloudy
11:48 AM 84.2 °F 90.9 °F 73.4 °F 70% 30.06 in 10.0 mi West 11.5 mph - N/A   Mostly Cloudy
11:53 AM 86.0 °F 93.4 °F 73.4 °F 66% 30.06 in 10.0 mi West 12.7 mph - N/A   Scattered Clouds
11:58 AM 85.6 °F 92.6 °F 73.2 °F 66% 30.07 in 10.0 mi West 11.5 mph - N/A   Scattered Clouds
12:58 PM 87.1 °F 94.1 °F 72.9 °F 62% 30.05 in 10.0 mi WNW 9.2 mph - N/A   Mostly Cloudy
1:58 PM 88.3 °F 93.2 °F 70.0 °F 54% 30.04 in 10.0 mi Variable 6.9 mph - N/A   Mostly Cloudy
2:58 PM 90.1 °F 95.8 °F 70.5 °F 52% 30.02 in 10.0 mi SSW 10.4 mph - N/A   Partly Cloudy
3:58 PM 91.4 °F 96.8 °F 69.8 °F 49% 30.00 in 10.0 mi West 9.2 mph - N/A   Clear
4:58 PM 91.4 °F 96.8 °F 69.6 °F 49% 29.98 in 10.0 mi WSW 8.1 mph - N/A   Clear
5:58 PM 91.2 °F 95.0 °F 67.6 °F 46% 29.98 in 10.0 mi West 5.8 mph - N/A   Clear
6:58 PM 89.2 °F 94.5 °F 70.3 °F 53% 29.98 in 10.0 mi SW 8.1 mph 16.1 mph N/A   Clear
7:58 PM 87.1 °F 92.8 °F 71.1 °F 59% 29.99 in 10.0 mi SW 6.9 mph - N/A   Clear
8:58 PM 84.0 °F 88.7 °F 70.7 °F 64% 29.99 in 10.0 mi SSW 4.6 mph - N/A   Clear
9:58 PM 81.5 °F 86.1 °F 72.0 °F 73% 29.99 in 10.0 mi SW 4.6 mph - N/A   Clear
10:58 PM 81.5 °F 86.3 °F 72.3 °F 74% 30.02 in 9.0 mi SW 4.6 mph - N/A   Clear
11:03 PM 82.4 °F 87.2 °F 71.6 °F 70% 30.01 in 5.0 mi SW 4.6 mph - N/A   Haze
11:18 PM 80.6 °F 85.4 °F 73.4 °F 79% 30.01 in 10.0 mi SW 4.6 mph - N/A   Clear
11:58 PM 79.7 °F - 72.3 °F 78% 30.01 in 10.0 mi WSW 5.8 mph - N/A   Clear